This is the latest recevied weather packets stored in our database for station/object N2WH. If no packets are shown the sender has not sent any weather packets the latest 10 day(s).
| Time | Temp. | Humidity | Pressure | Rain* | Wind** | Luminosity | Snow |
|---|---|---|---|---|---|---|---|
| 1777901274 | 15.56° C | 43% | 1014 hPa | 0 mm | - | 126 W/m² | - |
| 1777900971 | 15° C | 43% | 1014.3 hPa | 0 mm | - | 61 W/m² | - |
| 1777900668 | 15° C | 45% | 1014.3 hPa | 0 mm | - | 240 W/m² | - |
| 1777900365 | 14.44° C | 45% | 1014.3 hPa | 0 mm | - | 66 W/m² | - |
| 1777900063 | 14.44° C | 46% | 1014.3 hPa | 0 mm | - | 68 W/m² | - |
| 1777899758 | 13.89° C | 45% | 1014.5 hPa | 0 mm | - | 63 W/m² | - |
| 1777899455 | 13.89° C | 47% | 1014.3 hPa | 0 mm | - | 55 W/m² | - |
| 1777899153 | 13.33° C | 47% | 1014.5 hPa | 0 mm | - | 62 W/m² | - |
| 1777898851 | 13.33° C | 47% | 1014.8 hPa | 0 mm | - | 62 W/m² | - |
| 1777898548 | 13.89° C | 46% | 1014.7 hPa | 0 mm | - | 69 W/m² | - |
| 1777898246 | 13.33° C | 47% | 1014.8 hPa | 0 mm | - | 117 W/m² | - |
| 1777897943 | 13.33° C | 47% | 1014.4 hPa | 0 mm | - | 224 W/m² | - |
| 1777897638 | 12.78° C | 49% | 1014.7 hPa | 0 mm | - | 241 W/m² | - |
| 1777897335 | 12.22° C | 48% | 1014.7 hPa | 0 mm | - | 195 W/m² | - |
| 1777897031 | 11.67° C | 51% | 1014.6 hPa | 0 mm | - | 208 W/m² | - |
| 1777896728 | 11.67° C | 52% | 1014.7 hPa | 0 mm | - | 196 W/m² | - |
| 1777896425 | 11.11° C | 54% | 1014.7 hPa | 0 mm | - | 165 W/m² | - |
| 1777896122 | 10.56° C | 54% | 1014.7 hPa | 0 mm | - | 66 W/m² | - |
| 1777895820 | 10.56° C | 56% | 1014.8 hPa | 0 mm | - | 85 W/m² | - |
| 1777895517 | 10° C | 57% | 1014.7 hPa | 0 mm | - | 62 W/m² | - |
| 1777895215 | 10° C | 58% | 1014.9 hPa | 0 mm | - | 49 W/m² | - |
| 1777894912 | 10° C | 58% | 1014.8 hPa | 0 mm | - | 40 W/m² | - |
| 1777894609 | 9.44° C | 59% | 1014.9 hPa | 0 mm | - | 46 W/m² | - |
| 1777894306 | 9.44° C | 58% | 1015 hPa | 0 mm | - | 44 W/m² | - |
| 1777894003 | 8.89° C | 60% | 1014.8 hPa | 0 mm | - | 46 W/m² | - |
* Rain latest hour (hover to see other rain measurements)
** Current wind speed in m/s (hover to see current wind gust speed)